| time (UTC) | temp F | wind direction | speed knots | gust knots | rain 1hr in | rain 24hr in | rain mn in | humidity % | barometer mb |
| 20260505093050 | 55 | 0 | 0.0 | 0.9 | 0.00 | 0.00 | 0.00 | 81 | 1016.7 |
| 20260505091550 | 55 | 0 | 0.0 | 0.9 | 0.00 | 0.00 | 0.00 | 81 | 1016.7 |
| 20260505090049 | 55 | 0 | 0.0 | 2.6 | 0.00 | 0.00 | 0.00 | 80 | 1016.7 |
| 20260505084548 | 56 | 0 | 0.0 | 0.9 | 0.00 | 0.00 | 0.00 | 79 | 1016.6 |
| 20260505083049 | 56 | 0 | 0.0 | 0.0 | 0.00 | 0.00 | 0.00 | 78 | 1016.7 |
| 20260505081554 | 57 | 0 | 0.0 | 1.7 | 0.00 | 0.00 | 0.00 | 77 | 1016.8 |
| 20260505080104 | 58 | 0 | 0.0 | 1.7 | 0.00 | 0.00 | 0.00 | 76 | 1016.3 |
| 20260505074553 | 58 | 0 | 0.0 | 2.6 | 0.00 | 0.00 | 0.00 | 75 | 1016.3 |
| 20260505073055 | 58 | 0 | 0.0 | 2.6 | 0.00 | 0.00 | 0.00 | 75 | 1016.3 |
| 20260505071554 | 59 | 0 | 0.0 | 1.7 | 0.00 | 0.00 | 0.00 | 75 | 1016.3 |
| 20260505070056 | 59 | 0 | 0.0 | 3.5 | 0.00 | 0.00 | 0.00 | 73 | 1016.3 |
| 20260505064604 | 60 | 0 | 0.0 | 4.3 | 0.00 | 0.00 | 0.00 | 72 | 1016.3 |
| 20260505063052 | 60 | 0 | 0.0 | 2.6 | 0.00 | 0.00 | 0.00 | 72 | 1016.2 |
| 20260505061552 | 61 | 209 | 0.0 | 2.6 | 0.00 | 0.00 | 0.00 | 71 | 1016.2 |
| 20260505060056 | 61 | 195 | 0.0 | 4.3 | 0.00 | 0.00 | 0.00 | 70 | 1016.3 |
| 20260505054559 | 61 | 147 | 0.0 | 4.3 | 0.00 | 0.00 | 0.00 | 69 | 1016.2 |
| 20260505053105 | 62 | 0 | 0.9 | 4.3 | 0.00 | 0.00 | 0.00 | 69 | 1016.4 |
| 20260505051600 | 62 | 213 | 0.0 | 4.3 | 0.00 | 0.00 | 0.00 | 68 | 1016.5 |
| 20260505041554 | 64 | 0 | 0.0 | 4.3 | 0.00 | 0.00 | 0.00 | 66 | 1016.1 |
| 20260505040052 | 64 | 145 | 0.0 | 4.3 | 0.00 | 0.00 | 0.00 | 66 | 1016.2 |
| 20260505034556 | 65 | 155 | 0.0 | 4.3 | 0.00 | 0.00 | 0.00 | 65 | 1016.1 |
| 20260505033051 | 65 | 155 | 0.9 | 5.2 | 0.00 | 0.00 | 0.00 | 64 | 1016.0 |
| 20260505031549 | 66 | 169 | 0.9 | 6.1 | 0.00 | 0.00 | 0.00 | 63 | 1016.0 |
| 20260505030048 | 66 | 0 | 0.0 | 6.1 | 0.00 | 0.00 | 0.00 | 61 | 1015.9 |
| 20260505024552 | 66 | 165 | 0.0 | 4.3 | 0.00 | 0.00 | 0.00 | 58 | 1016.2 |
| 20260505023102 | 66 | 194 | 0.9 | 5.2 | 0.00 | 0.00 | 0.00 | 55 | 1016.2 |
| 20260505021549 | 66 | 171 | 0.0 | 2.6 | 0.00 | 0.00 | 0.00 | 53 | 1016.1 |
| 20260505020055 | 65 | 0 | 0.0 | 2.6 | 0.00 | 0.00 | 0.00 | 54 | 1015.8 |
| 20260505014550 | 65 | 0 | 0.0 | 0.9 | 0.00 | 0.00 | 0.00 | 55 | 1015.7 |
| 20260505013054 | 65 | 0 | 0.0 | 0.9 | 0.00 | 0.00 | 0.00 | 55 | 1015.6 |
| 20260505011552 | 65 | 0 | 0.0 | 0.9 | 0.00 | 0.00 | 0.00 | 54 | 1015.4 |
| 20260505010051 | 65 | 0 | 0.0 | 0.9 | 0.00 | 0.00 | 0.00 | 53 | 1015.2 |
| 20260505004548 | 66 | 0 | 0.0 | 0.9 | 0.00 | 0.00 | 0.00 | 52 | 1015.2 |
| 20260505003050 | 67 | 0 | 0.0 | 0.9 | 0.00 | 0.00 | 0.00 | 51 | 1014.9 |
| 20260505001550 | 68 | 0 | 0.0 | 0.9 | 0.00 | 0.00 | 0.00 | 49 | 1014.6 |
| 20260505000058 | 70 | 0 | 0.0 | 0.0 | 0.00 | 0.00 | 0.00 | 49 | 1014.5 |
| 20260504234549 | 72 | 0 | 0.0 | 0.9 | 0.00 | 0.00 | 0.00 | 45 | 1014.6 |
| 20260504233050 | 73 | 0 | 0.0 | 2.6 | 0.00 | 0.00 | 0.00 | 41 | 1014.3 |
| 20260504231545 | 74 | 0 | 0.0 | 4.3 | 0.00 | 0.00 | 0.00 | 43 | 1014.2 |
| 20260504230050 | 75 | 0 | 0.0 | 5.2 | 0.00 | 0.00 | 0.00 | 39 | 1014.1 |
| 20260504224549 | 75 | 0 | 0.0 | 4.3 | 0.00 | 0.00 | 0.00 | 38 | 1014.2 |
| 20260504223048 | 76 | 0 | 0.0 | 7.8 | 0.00 | 0.00 | 0.00 | 37 | 1014.3 |
| 20260504221545 | 76 | 150 | 0.9 | 7.0 | 0.00 | 0.00 | 0.00 | 36 | 1014.2 |
| 20260504220110 | 76 | 0 | 0.0 | 3.5 | 0.00 | 0.00 | 0.00 | 37 | 1014.1 |
| 20260504214555 | 76 | 215 | 0.9 | 6.1 | 0.00 | 0.00 | 0.00 | 35 | 1014.3 |
| 20260504213054 | 76 | 140 | 1.7 | 7.0 | 0.00 | 0.00 | 0.00 | 35 | 1014.3 |
| 20260504211554 | 76 | 194 | 0.9 | 7.0 | 0.00 | 0.00 | 0.00 | 37 | 1014.4 |
| 20260504210050 | 76 | 188 | 1.7 | 5.2 | 0.00 | 0.00 | 0.00 | 36 | 1014.5 |
| 20260504204552 | 77 | 265 | 0.0 | 3.5 | 0.00 | 0.00 | 0.00 | 37 | 1014.4 |
| 20260504203049 | 76 | 183 | 0.9 | 7.8 | 0.00 | 0.00 | 0.00 | 35 | 1014.6 |
| 20260504201547 | 76 | 175 | 1.7 | 7.0 | 0.00 | 0.00 | 0.00 | 36 | 1014.7 |
| 20260504200057 | 76 | 271 | 0.9 | 7.8 | 0.00 | 0.00 | 0.00 | 37 | 1014.8 |
| 20260504194549 | 75 | 157 | 0.9 | 7.0 | 0.00 | 0.00 | 0.00 | 40 | 1014.9 |
| 20260504193051 | 75 | 182 | 3.5 | 7.8 | 0.00 | 0.00 | 0.00 | 37 | 1015.1 |
| 20260504191557 | 75 | 0 | 0.9 | 4.3 | 0.00 | 0.00 | 0.00 | 41 | 1015.1 |
| 20260504190108 | 75 | 0 | 0.9 | 6.1 | 0.00 | 0.00 | 0.00 | 37 | 1015.3 |
| 20260504184554 | 75 | 263 | 1.7 | 7.0 | 0.00 | 0.00 | 0.00 | 39 | 1015.6 |
| 20260504183054 | 75 | 0 | 1.7 | 5.2 | 0.00 | 0.00 | 0.00 | 38 | 1015.8 |
| 20260504181558 | 75 | 138 | 1.7 | 5.2 | 0.00 | 0.00 | 0.00 | 39 | 1015.9 |
| 20260504180049 | 74 | 303 | 1.7 | 7.8 | 0.00 | 0.00 | 0.00 | 37 | 1016.0 |
| 20260504174547 | 74 | 140 | 0.9 | 6.1 | 0.00 | 0.00 | 0.00 | 38 | 1016.1 |
| 20260504173057 | 74 | 212 | 0.9 | 3.5 | 0.00 | 0.00 | 0.00 | 42 | 1016.3 |
| 20260504171549 | 74 | 0 | 0.0 | 4.3 | 0.00 | 0.00 | 0.00 | 38 | 1016.5 |